Regional Weather Roundup
Issued by NWS Cleveland, OH

Home | Current Version | Previous Version | Text Only | Print | Product List | Glossary Off
Versions: 1 2 3 4 5 6 7 8 9 10 11 12 13 14 15 16 17 18 19 20 21 22 23 24 25 26 27 28 29 30 31 32 33 34 35 36 37 38 39 40 41 42 43 44 45 46 47 48 49 50

337
ASUS41 KCLE 241610
RWRCLE
OHIO REGIONAL WEATHER ROUNDUP
NATIONAL WEATHER SERVICE WILMINGTON, OH
1200 PM EDT FRI MAR 24 2017

NOTE: "FAIR" INDICATES FEW OR NO CLOUDS BELOW 12,000 FEET WITH NO
SIGNIFICANT WEATHER AND/OR OBSTRUCTIONS TO VISIBILITY.

OHZ001>008-015>018-024>027-034-035-043-044-241700-
   NORTHWEST OHIO

CITY           SKY/WX    TMP DP  RH WIND       PRES   REMARKS
DEFIANCE       FAIR      63  50  62 SW24G33   30.03F
FINDLAY        FAIR      65  49  56 SW24G32   30.07F
TOLEDO EXPRESS FAIR      62  48  60 SW21G29   30.03S
TOLEDO EXEC    FAIR      65  52  62 SW23G30   30.05S
LIMA           FAIR      63  49  60 SW24G40   30.09F
$$

OHZ009>014-019>023-028>033-038-089-241700-
   NORTHEAST OHIO

CITY           SKY/WX    TMP DP  RH WIND       PRES   REMARKS
CLE-HOPKINS    CLOUDY    67  47  48 SW21G29   30.10S
CLE-LAKEFRONT  PTSUNNY   65  47  52 S18G29    30.04F
CUY CO. ARPT   CLOUDY    64  48  55 SW18G32   30.06S
LORAIN-ELYRIA  FAIR      61  47  59 SW18G35   30.08S
ASHTABULA      FAIR      61  44  53 SW17G28   30.07F
AKRON-CANTON   PTSUNNY   61  45  55 SW23G31   30.13F
WOOSTER        FAIR      63  48  58 SW20G31   30.13S
MANSFIELD      FAIR      61  48  62 SW31G41   30.13S
YOUNGSTOWN     CLOUDY    60  42  51 SW15G23   30.12F
$$

OHZ042-051>053-060>062-070>072-077>081-241700-
  SOUTHWEST OHIO

CITY           SKY/WX    TMP DP  RH WIND       PRES   REMARKS
CINC-COVINGTON PTSUNNY   66  50  56 SW15G24   30.23R
CINC-LUNKEN    PTSUNNY   67  52  58 SW16      30.24R HAZE
HAMILTON       FAIR      64  49  57 S12G22    30.23S
DAYTON         PTSUNNY   60  46  59 S20G25    30.18S
WRIGHT-PAT AFB PTSUNNY   61  47  58 S21G28    30.18F
DAYTON GENERAL FAIR      61  47  59 S15G22    30.20F
WILMINGTON     FAIR      62  49  62 SW20G26   30.22S
$$

OHZ036-037-039>041-045>050-054>059-063>069-073>076-082>088-241700-
  CENTRAL AND SOUTHEAST OHIO

CITY           SKY/WX    TMP DP  RH WIND       PRES   REMARKS
COLUMBUS       PTSUNNY   64  47  53 SW16G26   30.21S
OSU AIRPORT    FAIR      63  48  58 SW21G29   30.19F
BOLTON FIELD   MOSUNNY   61  48  63 SW22G28   30.21S
RICKENBACK AFB FAIR      60  47  60 SW22G28   30.21F
NEWARK         FAIR      65  48  54 SW18G31   30.19F
MARION         FAIR      62  47  57 SW22G32   30.14F
LANCASTER      FAIR      67  49  52 SW15G28   30.22F
ZANESVILLE     FAIR      66  45  46 SW15G26   30.20F
NEW PHILLY     FAIR      63  44  50 SW16G26   30.19S
$$




USA.gov is the U.S. government's official web portal to all federal, state and local government web resources and services.